LYX52A LEPA-LEMD

Flight info

Callsign LYX52A
Flight time 0h 59m
Altitude 31000
Route EPAMA N733 PRADO
Aircraft A321/M-SDE3FGHIRWY/LB1

Departure

Time 2026-05-07 17:00
Airport Palma de Mallorca Airport (LEPA)

Arrival

Time 2026-05-07 18:00
Airport Adolfo Suárez Madrid–Barajas Airport (LEMD)
Time Latitude Longitude Altitude Speed Heading
2026-05-07 16:19 39.54592 2.71609 12 ft 0 kts 149°
2026-05-07 16:38 39.54602 2.71602 11 ft 2 kts 148°
2026-05-07 16:38 39.54615 2.71591 11 ft 2 kts 149°
2026-05-07 16:38 39.54628 2.71581 11 ft 2 kts 149°
2026-05-07 16:39 39.54636 2.71575 11 ft 0 kts 149°
2026-05-07 16:39 39.54646 2.71562 11 ft 2 kts 100°
2026-05-07 16:39 39.54645 2.71546 11 ft 0 kts 60°
2026-05-07 16:39 39.54641 2.71539 11 ft 1 kts 58°
2026-05-07 16:40 39.54640 2.71538 11 ft 0 kts 58°
2026-05-07 16:46 39.54642 2.71543 11 ft 3 kts 58°
2026-05-07 16:46 39.54680 2.71621 11 ft 15 kts 59°
2026-05-07 16:47 39.54734 2.71740 12 ft 15 kts 59°
2026-05-07 16:47 39.54791 2.71855 14 ft 14 kts 57°
2026-05-07 16:47 39.54851 2.71983 14 ft 19 kts 60°
2026-05-07 16:47 39.54861 2.72143 14 ft 18 kts 114°
2026-05-07 16:48 39.54895 2.72280 11 ft 17 kts 59°
2026-05-07 16:48 39.54959 2.72418 10 ft 18 kts 59°
2026-05-07 16:48 39.55029 2.72569 9 ft 19 kts 62°
2026-05-07 16:48 39.55096 2.72716 10 ft 18 kts 59°
2026-05-07 16:49 39.55159 2.72853 12 ft 17 kts 59°
2026-05-07 16:49 39.55221 2.72984 13 ft 17 kts 58°
2026-05-07 16:49 39.55306 2.73157 18 ft 22 kts 59°
2026-05-07 16:49 39.55386 2.73327 20 ft 21 kts 58°
2026-05-07 16:50 39.55459 2.73481 22 ft 19 kts 59°
2026-05-07 16:50 39.55493 2.73595 23 ft 9 kts 127°
2026-05-07 16:50 39.55431 2.73651 27 ft 16 kts 149°
2026-05-07 16:50 39.55296 2.73757 33 ft 24 kts 148°
2026-05-07 16:51 39.55159 2.73866 38 ft 21 kts 148°
2026-05-07 16:51 39.55031 2.73967 37 ft 21 kts 148°
2026-05-07 16:51 39.54900 2.74070 34 ft 22 kts 149°
2026-05-07 16:51 39.54820 2.74124 31 ft 10 kts 175°
2026-05-07 16:52 39.54764 2.74076 32 ft 10 kts 237°
2026-05-07 16:52 39.54710 2.73963 34 ft 20 kts 239°
2026-05-07 16:52 39.54621 2.73777 34 ft 25 kts 238°
2026-05-07 16:52 39.54530 2.73582 34 ft 24 kts 239°
2026-05-07 16:53 39.54464 2.73443 33 ft 17 kts 238°
2026-05-07 16:53 39.54416 2.73344 34 ft 0 kts 238°
2026-05-07 16:53 39.54395 2.73298 33 ft 19 kts 239°
2026-05-07 16:53 39.54304 2.73103 32 ft 19 kts 239°
2026-05-07 16:54 39.54245 2.73062 31 ft 0 kts 157°
2026-05-07 16:54 39.54232 2.73073 32 ft 7 kts 135°
2026-05-07 16:54 39.54218 2.73127 33 ft 0 kts 91°
2026-05-07 16:58 39.54218 2.73129 33 ft 2 kts 92°
2026-05-07 16:58 39.54214 2.73220 33 ft 17 kts 94°
2026-05-07 16:59 39.54225 2.73384 33 ft 15 kts 60°
2026-05-07 16:59 39.54233 2.73401 33 ft 0 kts 59°
2026-05-07 16:59 39.54297 2.73541 33 ft 51 kts 59°
2026-05-07 17:00 39.54622 2.74224 30 ft 125 kts 58°
2026-05-07 17:00 39.55178 2.75394 263 ft 162 kts 59°
2026-05-07 17:00 39.55731 2.76562 1008 ft 148 kts 62°
2026-05-07 17:00 39.56274 2.77678 1526 ft 148 kts 59°
2026-05-07 17:01 39.56854 2.78796 1944 ft 155 kts 60°
2026-05-07 17:01 39.57499 2.80022 2269 ft 171 kts 59°
2026-05-07 17:01 39.58194 2.81351 2594 ft 187 kts 59°
2026-05-07 17:01 39.58941 2.82805 2957 ft 202 kts 59°
2026-05-07 17:02 39.59737 2.84366 3547 ft 208 kts 59°
2026-05-07 17:02 39.60516 2.85908 4135 ft 214 kts 59°
2026-05-07 17:02 39.61337 2.87535 4845 ft 217 kts 59°
2026-05-07 17:02 39.62148 2.89156 5667 ft 216 kts 59°
2026-05-07 17:03 39.62998 2.90779 6413 ft 219 kts 50°
2026-05-07 17:03 39.64301 2.91796 7084 ft 229 kts 12°
2026-05-07 17:03 39.65932 2.91600 7605 ft 248 kts 342°
2026-05-07 17:03 39.67358 2.90253 8013 ft 271 kts 307°
2026-05-07 17:04 39.67987 2.87912 8664 ft 281 kts 275°
2026-05-07 17:04 39.67941 2.85392 9491 ft 282 kts 266°
2026-05-07 17:04 39.67759 2.82838 10021 ft 294 kts 265°
2026-05-07 17:04 39.67567 2.80130 10537 ft 307 kts 266°
2026-05-07 17:05 39.67390 2.77288 10911 ft 324 kts 266°
2026-05-07 17:05 39.67226 2.74311 11260 ft 342 kts 266°
2026-05-07 17:05 39.67070 2.71198 11842 ft 350 kts 266°
2026-05-07 17:05 39.66919 2.68054 12573 ft 353 kts 266°
2026-05-07 17:06 39.66768 2.64845 13263 ft 357 kts 266°
2026-05-07 17:06 39.66618 2.61617 13737 ft 361 kts 266°
2026-05-07 17:06 39.66465 2.58351 13922 ft 362 kts 266°
2026-05-07 17:06 39.66312 2.55079 13924 ft 361 kts 266°
2026-05-07 17:07 39.66162 2.51858 13994 ft 365 kts 266°
2026-05-07 17:07 39.66008 2.48557 14571 ft 369 kts 265°
2026-05-07 17:07 39.65856 2.45263 15390 ft 367 kts 265°
2026-05-07 17:07 39.65701 2.41968 16114 ft 368 kts 265°
2026-05-07 17:08 39.65544 2.38638 16797 ft 370 kts 264°
2026-05-07 17:08 39.65383 2.35296 17455 ft 372 kts 264°
2026-05-07 17:08 39.65222 2.31960 18075 ft 375 kts 264°
2026-05-07 17:08 39.65059 2.28610 18690 ft 377 kts 263°
2026-05-07 17:09 39.64892 2.25171 19307 ft 380 kts 263°
2026-05-07 17:09 39.64723 2.21751 19895 ft 382 kts 263°
2026-05-07 17:09 39.64554 2.18324 20433 ft 386 kts 263°
2026-05-07 17:09 39.64380 2.14833 20994 ft 388 kts 263°
2026-05-07 17:10 39.64207 2.11376 21530 ft 391 kts 263°
2026-05-07 17:10 39.64031 2.07852 22057 ft 394 kts 263°
2026-05-07 17:10 39.63850 2.04285 22588 ft 396 kts 263°
2026-05-07 17:10 39.63670 2.00747 23080 ft 399 kts 263°
2026-05-07 17:11 39.63487 1.97149 23585 ft 401 kts 263°
2026-05-07 17:11 39.63303 1.93522 24086 ft 403 kts 263°
2026-05-07 17:11 39.63117 1.89914 24557 ft 405 kts 263°
2026-05-07 17:11 39.62926 1.86241 25028 ft 407 kts 263°
2026-05-07 17:12 39.62736 1.82605 25495 ft 409 kts 263°
2026-05-07 17:12 39.62540 1.78901 25952 ft 411 kts 262°
2026-05-07 17:12 39.62345 1.75209 26405 ft 413 kts 262°
2026-05-07 17:12 39.62149 1.71527 26845 ft 414 kts 262°
2026-05-07 17:13 39.61951 1.67807 27317 ft 415 kts 262°
2026-05-07 17:13 39.61752 1.64101 27880 ft 413 kts 262°
2026-05-07 17:13 39.61550 1.60371 28462 ft 410 kts 262°
2026-05-07 17:13 39.61350 1.56699 29021 ft 408 kts 262°
2026-05-07 17:14 39.61149 1.53016 29529 ft 407 kts 262°
2026-05-07 17:14 39.60949 1.49404 29950 ft 407 kts 261°
2026-05-07 17:14 39.60744 1.45729 30321 ft 409 kts 261°
2026-05-07 17:14 39.60537 1.42049 30665 ft 409 kts 261°
2026-05-07 17:15 39.60329 1.38376 30899 ft 411 kts 261°
2026-05-07 17:15 39.60122 1.34673 30910 ft 411 kts 261°
2026-05-07 17:15 39.59713 1.27293 30920 ft 410 kts 261°
2026-05-07 17:16 39.59298 1.19912 30917 ft 411 kts 261°
2026-05-07 17:16 39.58878 1.12552 30916 ft 411 kts 261°
2026-05-07 17:17 39.58456 1.05184 30919 ft 411 kts 261°
2026-05-07 17:17 39.58026 0.97779 30913 ft 411 kts 261°
2026-05-07 17:18 39.57595 0.90440 30909 ft 410 kts 261°
2026-05-07 17:18 39.57159 0.83095 30917 ft 409 kts 261°
2026-05-07 17:19 39.56717 0.75733 30912 ft 409 kts 261°
2026-05-07 17:19 39.56271 0.68389 30916 ft 408 kts 261°
2026-05-07 17:20 39.55822 0.61070 30925 ft 408 kts 261°
2026-05-07 17:20 39.55367 0.53726 30908 ft 408 kts 262°
2026-05-07 17:21 39.54913 0.46447 30926 ft 407 kts 262°
2026-05-07 17:21 39.54456 0.39219 30922 ft 407 kts 262°
2026-05-07 17:22 39.53991 0.31912 30921 ft 405 kts 261°
2026-05-07 17:22 39.53521 0.24671 30927 ft 404 kts 261°
2026-05-07 17:23 39.53049 0.17409 30923 ft 404 kts 262°
2026-05-07 17:23 39.52571 0.10169 30922 ft 404 kts 262°
2026-05-07 17:24 39.52088 0.02917 30911 ft 403 kts 262°
2026-05-07 17:24 39.51606 -0.04260 30931 ft 401 kts 262°
2026-05-07 17:25 39.51123 -0.11469 30936 ft 401 kts 262°
2026-05-07 17:25 39.50631 -0.18639 30932 ft 399 kts 262°
2026-05-07 17:26 39.50141 -0.25791 30926 ft 398 kts 263°
2026-05-07 17:26 39.49637 -0.32978 30943 ft 396 kts 263°
2026-05-07 17:27 39.49161 -0.40037 30933 ft 396 kts 265°
2026-05-07 17:27 39.49536 -0.47163 30931 ft 400 kts 278°
2026-05-07 17:28 39.51225 -0.54042 30952 ft 404 kts 290°
2026-05-07 17:28 39.53914 -0.60447 30957 ft 406 kts 296°
2026-05-07 17:29 39.56729 -0.66782 30952 ft 405 kts 295°
2026-05-07 17:29 39.59546 -0.73154 30970 ft 404 kts 295°
2026-05-07 17:30 39.62347 -0.79512 30965 ft 404 kts 295°
2026-05-07 17:30 39.65128 -0.85839 30992 ft 406 kts 295°
2026-05-07 17:31 39.67905 -0.92183 30973 ft 404 kts 295°
2026-05-07 17:31 39.70693 -0.98554 30979 ft 404 kts 295°
2026-05-07 17:32 39.73452 -1.04898 30977 ft 405 kts 295°
2026-05-07 17:32 39.75759 -1.10209 30964 ft 403 kts 295°
2026-05-07 17:33 39.79005 -1.17638 30956 ft 402 kts 296°
2026-05-07 17:33 39.81733 -1.23904 30980 ft 400 kts 295°
2026-05-07 17:34 39.84479 -1.30244 30956 ft 400 kts 295°
2026-05-07 17:34 39.87213 -1.36573 30966 ft 400 kts 296°
2026-05-07 17:35 39.89930 -1.42869 30951 ft 398 kts 296°
2026-05-07 17:35 39.92649 -1.49184 30958 ft 399 kts 296°
2026-05-07 17:36 39.95330 -1.55421 30960 ft 399 kts 296°
2026-05-07 17:36 39.97823 -1.61237 30962 ft 398 kts 296°
2026-05-07 17:37 40.00615 -1.67756 30963 ft 397 kts 295°
2026-05-07 17:37 40.03301 -1.74046 30957 ft 397 kts 296°
2026-05-07 17:38 40.05974 -1.80319 30968 ft 395 kts 296°
2026-05-07 17:38 40.08634 -1.86570 30966 ft 394 kts 296°
2026-05-07 17:39 40.11277 -1.92804 30967 ft 394 kts 296°
2026-05-07 17:39 40.13888 -1.98967 30971 ft 393 kts 296°
2026-05-07 17:40 40.15202 -2.02074 30834 ft 394 kts 296°
2026-05-07 17:40 40.16544 -2.05242 30577 ft 391 kts 296°
2026-05-07 17:40 40.17853 -2.08338 30326 ft 389 kts 296°
2026-05-07 17:40 40.19149 -2.11396 29988 ft 388 kts 296°
2026-05-07 17:41 40.20460 -2.14501 29388 ft 389 kts 296°
2026-05-07 17:41 40.21769 -2.17608 28615 ft 392 kts 296°
2026-05-07 17:41 40.23092 -2.20750 27735 ft 397 kts 296°
2026-05-07 17:41 40.24424 -2.23917 26906 ft 401 kts 296°
2026-05-07 17:42 40.25773 -2.27120 26202 ft 402 kts 296°
2026-05-07 17:42 40.27126 -2.30343 25461 ft 403 kts 296°
2026-05-07 17:42 40.28478 -2.33566 24763 ft 404 kts 296°
2026-05-07 17:42 40.29829 -2.36791 24050 ft 406 kts 296°
2026-05-07 17:43 40.31180 -2.40018 23399 ft 405 kts 296°
2026-05-07 17:43 40.32523 -2.43231 22983 ft 397 kts 296°
2026-05-07 17:43 40.33850 -2.46405 22572 ft 390 kts 296°
2026-05-07 17:43 40.35142 -2.49495 22255 ft 381 kts 296°
2026-05-07 17:44 40.36434 -2.52469 22026 ft 372 kts 301°
2026-05-07 17:44 40.38054 -2.55077 21837 ft 364 kts 312°
2026-05-07 17:44 40.40012 -2.57246 21403 ft 363 kts 321°
2026-05-07 17:44 40.42028 -2.59169 20977 ft 360 kts 322°
2026-05-07 17:45 40.44081 -2.61081 20552 ft 357 kts 322°
2026-05-07 17:45 40.46093 -2.62963 20150 ft 353 kts 322°
2026-05-07 17:45 40.48069 -2.64831 19754 ft 350 kts 322°
2026-05-07 17:45 40.50045 -2.66708 19347 ft 347 kts 321°
2026-05-07 17:46 40.51988 -2.68562 18944 ft 344 kts 321°
2026-05-07 17:46 40.53918 -2.70406 18549 ft 342 kts 321°
2026-05-07 17:46 40.55856 -2.72264 18166 ft 339 kts 321°
2026-05-07 17:46 40.57734 -2.74063 17798 ft 336 kts 321°
2026-05-07 17:47 40.59599 -2.75898 17414 ft 332 kts 316°
2026-05-07 17:47 40.61012 -2.78223 17021 ft 323 kts 294°
2026-05-07 17:47 40.61590 -2.81051 16634 ft 314 kts 270°
2026-05-07 17:47 40.61254 -2.83802 16259 ft 307 kts 246°
2026-05-07 17:48 40.60097 -2.86118 15885 ft 303 kts 226°
2026-05-07 17:48 40.58565 -2.88033 15508 ft 302 kts 221°
2026-05-07 17:48 40.56966 -2.89865 15125 ft 300 kts 221°
2026-05-07 17:48 40.55386 -2.91644 14906 ft 299 kts 220°
2026-05-07 17:49 40.53790 -2.93431 14645 ft 301 kts 221°
2026-05-07 17:49 40.52181 -2.95220 14191 ft 302 kts 220°
2026-05-07 17:49 40.50567 -2.97000 13739 ft 303 kts 221°
2026-05-07 17:49 40.48946 -2.98771 13289 ft 304 kts 220°
2026-05-07 17:50 40.47323 -3.00542 12837 ft 304 kts 220°
2026-05-07 17:50 40.45689 -3.02322 12389 ft 305 kts 220°
2026-05-07 17:50 40.44080 -3.04074 11947 ft 305 kts 220°
2026-05-07 17:50 40.42427 -3.05870 11492 ft 305 kts 220°
2026-05-07 17:51 40.40787 -3.07655 11043 ft 306 kts 220°
2026-05-07 17:51 40.39148 -3.09442 10592 ft 306 kts 220°
2026-05-07 17:51 40.37516 -3.11224 10148 ft 306 kts 220°
2026-05-07 17:51 40.35867 -3.13026 9726 ft 306 kts 221°
2026-05-07 17:52 40.34281 -3.14759 9275 ft 306 kts 220°
2026-05-07 17:52 40.32633 -3.16567 8815 ft 306 kts 220°
2026-05-07 17:52 40.31009 -3.18356 8374 ft 301 kts 220°
2026-05-07 17:52 40.29458 -3.20153 7929 ft 300 kts 227°
2026-05-07 17:53 40.28410 -3.22489 7450 ft 294 kts 253°
2026-05-07 17:53 40.28137 -3.25091 7018 ft 282 kts 268°
2026-05-07 17:53 40.28106 -3.27599 6699 ft 267 kts 270°
2026-05-07 17:53 40.28104 -3.29960 6463 ft 251 kts 270°
2026-05-07 17:54 40.28113 -3.32166 6240 ft 242 kts 270°
2026-05-07 17:54 40.28135 -3.34367 5999 ft 236 kts 272°
2026-05-07 17:54 40.28492 -3.36436 5754 ft 232 kts 299°
2026-05-07 17:54 40.29565 -3.37944 5542 ft 229 kts 324°
2026-05-07 17:55 40.30799 -3.39163 5338 ft 221 kts 322°
2026-05-07 17:55 40.31961 -3.40402 5080 ft 208 kts 321°
2026-05-07 17:55 40.33037 -3.41567 4857 ft 194 kts 321°
2026-05-07 17:55 40.34020 -3.42641 4743 ft 174 kts 321°
2026-05-07 17:56 40.34874 -3.43603 4619 ft 155 kts 320°
2026-05-07 17:56 40.35672 -3.44512 4519 ft 151 kts 321°
2026-05-07 17:56 40.36481 -3.45390 4339 ft 150 kts 322°
2026-05-07 17:56 40.37295 -3.46241 4138 ft 149 kts 323°
2026-05-07 17:57 40.38103 -3.47068 3945 ft 149 kts 323°
2026-05-07 17:57 40.38645 -3.47618 3811 ft 150 kts 323°
2026-05-07 17:57 40.39748 -3.48737 3549 ft 150 kts 324°
2026-05-07 17:57 40.40522 -3.49521 3367 ft 150 kts 324°
2026-05-07 17:58 40.41319 -3.50329 3175 ft 148 kts 323°
2026-05-07 17:58 40.42153 -3.51176 2976 ft 146 kts 324°
2026-05-07 17:58 40.42950 -3.51984 2783 ft 145 kts 323°
2026-05-07 17:58 40.43738 -3.52783 2595 ft 145 kts 323°
2026-05-07 17:59 40.44501 -3.53558 2417 ft 144 kts 323°
2026-05-07 17:59 40.45282 -3.54352 2231 ft 143 kts 324°
2026-05-07 17:59 40.46063 -3.55145 2044 ft 141 kts 323°
2026-05-07 17:59 40.46794 -3.55886 1958 ft 131 kts 323°
2026-05-07 18:00 40.47291 -3.56379 1972 ft 45 kts 321°
2026-05-07 18:00 40.47348 -3.56438 1974 ft 3 kts 321°
2026-05-07 18:00 40.47396 -3.56489 1975 ft 20 kts 319°
2026-05-07 18:00 40.47513 -3.56678 1980 ft 27 kts 301°
2026-05-07 18:01 40.47555 -3.56785 1983 ft 0 kts 296°
2026-05-07 18:01 40.47555 -3.56787 1983 ft 2 kts 296°
2026-05-07 18:01 40.47550 -3.56871 1987 ft 16 kts 218°
2026-05-07 18:02 40.47321 -3.56687 1983 ft 27 kts 143°
2026-05-07 18:02 40.47172 -3.56535 1978 ft 27 kts 146°
2026-05-07 18:02 40.47014 -3.56459 1977 ft 24 kts 172°
2026-05-07 18:03 40.46871 -3.56462 1978 ft 14 kts 185°
2026-05-07 18:03 40.46775 -3.56470 1978 ft 13 kts 183°
2026-05-07 18:03 40.46683 -3.56479 1979 ft 12 kts 184°
2026-05-07 18:03 40.46601 -3.56485 1979 ft 11 kts 184°
2026-05-07 18:04 40.46518 -3.56492 1979 ft 15 kts 184°
2026-05-07 18:04 40.46392 -3.56501 1980 ft 18 kts 184°
2026-05-07 18:04 40.46271 -3.56509 1979 ft 17 kts 185°
2026-05-07 18:04 40.46151 -3.56520 1977 ft 17 kts 184°
2026-05-07 18:05 40.46039 -3.56528 1978 ft 15 kts 184°
2026-05-07 18:05 40.45958 -3.56469 1975 ft 15 kts 98°
2026-05-07 18:05 40.45957 -3.56341 1970 ft 7 kts 88°
2026-05-07 18:05 40.45972 -3.56320 1970 ft 6 kts 16°
2026-05-07 18:06 40.46025 -3.56318 1970 ft 4 kts
2026-05-07 18:06 40.46038 -3.56318 1970 ft 0 kts